Location: Biltmore Gardens
(41.6070°N, 83.4666°W)
Time: 15:20:55
(UTC+00:00)

Cosmos 2322 Rocket - Pass Details

Date: 14 July 2020
Orbit: 832 x 851 km, 71.0° (Epoch: 12 August)

Event Time Altitude Azimuth Distance (km) Brightness Sun altitude
Rises 09:33:11 0° 336° (NNW) 3,406 5.5 -6.9°
Reaches altitude 10° 09:35:38 10° 336° (NNW) 2,470 4.8 -6.6°
Maximum altitude 09:41:20 89° 59° (ENE) 852 2.3 -5.7°
Drops below altitude 10° 09:47:00 10° 158° (SSE) 2,466 4.5 -4.8°
Sets 09:49:27 0° 158° (SSE) 3,399 5.2 -4.5°
